EN

Hourly Weather Marghita

Today, 22 October, Thursday

Time Temperature Precipitation Wind Pressure Humidity
00:00 +9°C° 0 mm 2 mps 755 mmHg 59%
01:00 +9°C° 0 mm 2 mps 755 mmHg 61%
02:00 +9°C° 0 mm 2 mps 755 mmHg 60%
03:00 +9°C° 0 mm 2 mps 755 mmHg 60%
04:00 +10°C° 0 mm 1 mps 755 mmHg 59%
05:00 +10°C° 0 mm 1 mps 755 mmHg 59%
06:00 +10°C° 0 mm 1 mps 755 mmHg 58%
07:00 +10°C° 0 mm 1 mps 755 mmHg 57%
08:00 +13°C° 0 mm 1 mps 755 mmHg 51%
09:00 +15°C° 0 mm 1 mps 755 mmHg 46%
10:00 +18°C° 0 mm 1 mps 755 mmHg 41%
11:00 +19°C° 0 mm 1 mps 755 mmHg 39%
12:00 +20°C° 0 mm 1 mps 755 mmHg 38%
13:00 +21°C° 0 mm 1 mps 754 mmHg 37%
14:00 +20°C° 0 mm 1 mps 754 mmHg 42%
15:00 +18°C° 0 mm 1 mps 754 mmHg 47%
16:00 +16°C° 0 mm 1 mps 753 mmHg 52%
17:00 +15°C° 0 mm 1 mps 754 mmHg 55%
18:00 +14°C° 0 mm 1 mps 754 mmHg 58%
19:00 +13°C° 0 mm 1 mps 754 mmHg 61%
20:00 +13°C° 0 mm 1 mps 754 mmHg 62%
21:00 +12°C° 0 mm 2 mps 754 mmHg 62%
22:00 +12°C° 0 mm 2 mps 754 mmHg 63%
23:00 +12°C° 0 mm 2 mps 754 mmHg 63%

Tomorrow, 23 October, Friday

Time Temperature Precipitation Wind Pressure Humidity
00:00 +12°C° 0 mm 2 mps 754 mmHg 63%
01:00 +12°C° 0 mm 2 mps 754 mmHg 63%
02:00 +12°C° 0 mm 2 mps 754 mmHg 62%
03:00 +12°C° 0 mm 2 mps 753 mmHg 61%
04:00 +10°C° 0 mm 2 mps 753 mmHg 60%
05:00 +12°C° 0 mm 2 mps 753 mmHg 60%
06:00 +12°C° 0 mm 1 mps 753 mmHg 61%
07:00 +12°C° 0 mm 1 mps 753 mmHg 61%
08:00 +14°C° 0 mm 2 mps 753 mmHg 56%
09:00 +16°C° 0 mm 2 mps 752 mmHg 51%
10:00 +18°C° 0 mm 2 mps 752 mmHg 45%
11:00 +19°C° 0 mm 3 mps 752 mmHg 43%
12:00 +20°C° 0 mm 4 mps 751 mmHg 41%
13:00 +21°C° 0 mm 4 mps 751 mmHg 38%
14:00 +19°C° 0 mm 4 mps 751 mmHg 45%
15:00 +18°C° 0 mm 3 mps 750 mmHg 51%
16:00 +17°C° 0 mm 2 mps 750 mmHg 57%
17:00 +16°C° 0 mm 2 mps 750 mmHg 59%
18:00 +16°C° 0 mm 2 mps 750 mmHg 60%
19:00 +15°C° 0 mm 2 mps 750 mmHg 61%
20:00 +14°C° 0 mm 3 mps 750 mmHg 61%
21:00 +13°C° 0 mm 3 mps 750 mmHg 60%
22:00 +13°C° 0 mm 3 mps 750 mmHg 60%
23:00 +13°C° 0 mm 3 mps 750 mmHg 58%

Day after tomorrow, 24 October, Saturday

Time Temperature Precipitation Wind Pressure Humidity
00:00 +13°C° 0 mm 3 mps 750 mmHg 57%
01:00 +13°C° 0 mm 3 mps 749 mmHg 56%
02:00 +13°C° 0 mm 3 mps 749 mmHg 56%
03:00 +13°C° 0 mm 4 mps 749 mmHg 56%
04:00 +13°C° 0 mm 4 mps 749 mmHg 56%
05:00 +13°C° 0 mm 4 mps 749 mmHg 58%
06:00 +14°C° 0 mm 5 mps 749 mmHg 61%
07:00 +14°C° 0 mm 5 mps 749 mmHg 63%
08:00 +14°C° 0 mm 5 mps 749 mmHg 66%
09:00 +15°C° 0 mm 5 mps 749 mmHg 69%
10:00 +15°C° 0 mm 5 mps 749 mmHg 72%
11:00 +15°C° 0 mm 5 mps 750 mmHg 72%
12:00 +16°C° 0 mm 5 mps 750 mmHg 72%
13:00 +16°C° 0 mm 5 mps 750 mmHg 72%
14:00 +17°C° 0 mm 4 mps 750 mmHg 74%
15:00 +17°C° 0 mm 3 mps 750 mmHg 75%
16:00 +16°C° 0 mm 2 mps 750 mmHg 77%
17:00 +16°C° 0 mm 2 mps 751 mmHg 79%
18:00 +16°C° 0 mm 1 mps 751 mmHg 80%
19:00 +15°C° 0 mm 1 mps 751 mmHg 82%
20:00 +15°C° 0 mm 1 mps 751 mmHg 83%
21:00 +15°C° 0 mm 1 mps 751 mmHg 85%
22:00 +14°C° 0 mm 1 mps 752 mmHg 86%
23:00 +14°C° 0 mm 1 mps 751 mmHg 89%

, 25 October, Sunday

Time Temperature Precipitation Wind Pressure Humidity
00:00 +13°C° 0 mm 1 mps 751 mmHg 91%
01:00 +13°C° 0 mm 1 mps 751 mmHg 93%
02:00 +12°C° 0 mm 1 mps 751 mmHg 94%
03:00 +12°C° 0 mm 1 mps 751 mmHg 94%
04:00 +11°C° 0 mm 1 mps 751 mmHg 95%
05:00 +12°C° 0 mm 2 mps 751 mmHg 94%
06:00 +12°C° 0 mm 2 mps 751 mmHg 94%
07:00 +12°C° 0 mm 2 mps 751 mmHg 94%
08:00 +13°C° 0 mm 2 mps 751 mmHg 86%
09:00 +14°C° 0 mm 3 mps 751 mmHg 79%
10:00 +17°C° 0 mm 3 mps 751 mmHg 71%
11:00 +18°C° 0 mm 3 mps 751 mmHg 67%
12:00 +19°C° 0 mm 3 mps 750 mmHg 64%
13:00 +20°C° 0 mm 3 mps 750 mmHg 60%
14:00 +19°C° 0 mm 3 mps 750 mmHg 64%
15:00 +18°C° 0 mm 2 mps 750 mmHg 67%
16:00 +17°C° 0 mm 2 mps 749 mmHg 71%
17:00 +16°C° 0 mm 1 mps 750 mmHg 74%
18:00 +15°C° 0 mm 1 mps 750 mmHg 77%
19:00 +15°C° 0 mm 1 mps 750 mmHg 79%
20:00 +15°C° 0.1 mm 1 mps 750 mmHg 81%
21:00 +14°C° 0.1 mm 1 mps 750 mmHg 82%
22:00 +14°C° 0.1 mm 1 mps 750 mmHg 84%
23:00 +14°C° 0.1 mm 2 mps 749 mmHg 85%

25 October, Sunday

Time Temperature Precipitation Wind Pressure Humidity
00:00 +13°C° 0 mm 1 mps 751 mmHg 91%
01:00 +13°C° 0 mm 1 mps 751 mmHg 93%
02:00 +12°C° 0 mm 1 mps 751 mmHg 94%
03:00 +12°C° 0 mm 1 mps 751 mmHg 94%
04:00 +11°C° 0 mm 1 mps 751 mmHg 95%
05:00 +12°C° 0 mm 2 mps 751 mmHg 94%
06:00 +12°C° 0 mm 2 mps 751 mmHg 94%
07:00 +12°C° 0 mm 2 mps 751 mmHg 94%
08:00 +13°C° 0 mm 2 mps 751 mmHg 86%
09:00 +14°C° 0 mm 3 mps 751 mmHg 79%
10:00 +17°C° 0 mm 3 mps 751 mmHg 71%
11:00 +18°C° 0 mm 3 mps 751 mmHg 67%
12:00 +19°C° 0 mm 3 mps 750 mmHg 64%
13:00 +20°C° 0 mm 3 mps 750 mmHg 60%
14:00 +19°C° 0 mm 3 mps 750 mmHg 64%
15:00 +18°C° 0 mm 2 mps 750 mmHg 67%
16:00 +17°C° 0 mm 2 mps 749 mmHg 71%
17:00 +16°C° 0 mm 1 mps 750 mmHg 74%
18:00 +15°C° 0 mm 1 mps 750 mmHg 77%
19:00 +15°C° 0 mm 1 mps 750 mmHg 79%
20:00 +15°C° 0.1 mm 1 mps 750 mmHg 81%
21:00 +14°C° 0.1 mm 1 mps 750 mmHg 82%
22:00 +14°C° 0.1 mm 1 mps 750 mmHg 84%
23:00 +14°C° 0.1 mm 2 mps 749 mmHg 85%

26 October, Monday

Time Temperature Precipitation Wind Pressure Humidity
00:00 +14°C° 0.1 mm 2 mps 749 mmHg 86%
01:00 +13°C° 0.1 mm 3 mps 749 mmHg 88%
02:00 +13°C° 0 mm 3 mps 749 mmHg 88%
03:00 +13°C° 0 mm 3 mps 748 mmHg 88%
04:00 +12°C° 0 mm 3 mps 748 mmHg 88%
05:00 +13°C° 0 mm 2 mps 748 mmHg 86%
06:00 +13°C° 0 mm 2 mps 748 mmHg 85%
07:00 +13°C° 0 mm 2 mps 748 mmHg 83%
08:00 +15°C° 0 mm 2 mps 747 mmHg 78%
09:00 +16°C° 0 mm 1 mps 747 mmHg 73%
10:00 +18°C° 0 mm 1 mps 747 mmHg 67%
11:00 +19°C° 0 mm 1 mps 747 mmHg 65%
12:00 +19°C° 0 mm 1 mps 747 mmHg 62%
13:00 +20°C° 0 mm 1 mps 747 mmHg 59%
14:00 +19°C° 0.1 mm 1 mps 746 mmHg 63%
15:00 +18°C° 0.1 mm 1 mps 746 mmHg 67%
16:00 +18°C° 0.1 mm 1 mps 746 mmHg 71%
17:00 +16°C° 0 mm 1 mps 746 mmHg 73%
18:00 +15°C° 0 mm 1 mps 746 mmHg 75%
19:00 +14°C° 0 mm 1 mps 747 mmHg 78%
20:00 +14°C° 0 mm 1 mps 747 mmHg 78%
21:00 +14°C° 0 mm 1 mps 747 mmHg 79%
22:00 +14°C° 0 mm 1 mps 747 mmHg 79%
23:00 +13°C° 0 mm 2 mps 747 mmHg 79%

27 October, Tuesday

Time Temperature Precipitation Wind Pressure Humidity
00:00 +13°C° 0 mm 2 mps 747 mmHg 79%
01:00 +13°C° 0 mm 2 mps 747 mmHg 78%
02:00 +13°C° 0 mm 2 mps 747 mmHg 78%
03:00 +13°C° 0 mm 2 mps 747 mmHg 78%
04:00 +12°C° 0 mm 2 mps 747 mmHg 78%
05:00 +13°C° 0 mm 2 mps 747 mmHg 77%
06:00 +13°C° 0 mm 2 mps 748 mmHg 75%
07:00 +13°C° 0 mm 2 mps 748 mmHg 74%
08:00 +15°C° 0 mm 2 mps 748 mmHg 67%
09:00 +17°C° 0 mm 2 mps 748 mmHg 61%
10:00 +19°C° 0 mm 2 mps 748 mmHg 54%
11:00 +20°C° 0 mm 2 mps 747 mmHg 52%
12:00 +20°C° 0 mm 2 mps 747 mmHg 50%
13:00 +21°C° 0 mm 2 mps 747 mmHg 49%
14:00 +20°C° 0 mm 2 mps 747 mmHg 54%
15:00 +19°C° 0 mm 2 mps 747 mmHg 59%
16:00 +17°C° 0 mm 2 mps 747 mmHg 65%
17:00 +17°C° 0 mm 2 mps 747 mmHg 67%
18:00 +16°C° 0 mm 2 mps 747 mmHg 70%
19:00 +15°C° 0 mm 2 mps 747 mmHg 72%
20:00 +15°C° 0 mm 2 mps 747 mmHg 73%
21:00 +14°C° 0 mm 2 mps 747 mmHg 74%
22:00 +14°C° 0 mm 2 mps 747 mmHg 74%
23:00 +14°C° 0 mm 2 mps 746 mmHg 74%
Show more